| time (UTC) | temp F | wind direction | speed MPH | gust MPH | rain 1hr in | rain 24hr in | rain mn in | humidity % | barometer mb |
| 20260510044557 | 49 | 55 | 0.0 | 2.0 | 0.00 | 0.00 | 0.00 | 45 | 1019.0 |
| 20260510043104 | 49 | 102 | 2.0 | 4.0 | 0.00 | 0.00 | 0.00 | 46 | 1018.8 |
| 20260510041559 | 49 | 44 | 1.0 | 7.0 | 0.00 | 0.00 | 0.00 | 46 | 1018.7 |
| 20260510040059 | 50 | 21 | 2.0 | 8.0 | 0.00 | 0.00 | 0.00 | 47 | 1018.5 |
| 20260510034559 | 53 | 347 | 5.0 | 6.0 | 0.00 | 0.00 | 0.00 | 42 | 1018.3 |
| 20260510033113 | 54 | 321 | 4.0 | 6.0 | 0.00 | 0.00 | 0.00 | 41 | 1018.0 |
| 20260510031601 | 54 | 333 | 4.0 | 8.0 | 0.00 | 0.00 | 0.00 | 41 | 1017.9 |
| 20260510030103 | 54 | 313 | 4.0 | 6.0 | 0.00 | 0.00 | 0.00 | 41 | 1017.8 |
| 20260510024607 | 54 | 325 | 5.0 | 6.0 | 0.00 | 0.00 | 0.00 | 41 | 1017.6 |
| 20260510023059 | 54 | 326 | 4.0 | 6.0 | 0.00 | 0.00 | 0.00 | 41 | 1017.5 |
| 20260510021559 | 56 | 333 | 6.0 | 10.0 | 0.00 | 0.00 | 0.00 | 38 | 1017.3 |
| 20260510020059 | 57 | 24 | 3.0 | 7.0 | 0.00 | 0.00 | 0.00 | 38 | 1017.0 |
| 20260510014559 | 59 | 342 | 5.0 | 11.0 | 0.00 | 0.00 | 0.00 | 36 | 1017.0 |
| 20260510013100 | 60 | 27 | 9.0 | 14.0 | 0.00 | 0.00 | 0.00 | 35 | 1016.7 |
| 20260510011558 | 60 | 342 | 8.0 | 15.0 | 0.00 | 0.00 | 0.00 | 34 | 1016.8 |
| 20260510010056 | 60 | 327 | 14.0 | 17.0 | 0.00 | 0.00 | 0.00 | 34 | 1016.7 |
| 20260510004602 | 60 | 329 | 10.0 | 20.0 | 0.00 | 0.00 | 0.00 | 33 | 1016.7 |
| 20260510003059 | 61 | 306 | 11.0 | 22.0 | 0.00 | 0.00 | 0.00 | 33 | 1016.6 |
| 20260510001559 | 62 | 315 | 14.0 | 21.0 | 0.00 | 0.00 | 0.00 | 32 | 1016.5 |
| 20260510000103 | 62 | 328 | 15.0 | 20.0 | 0.00 | 0.00 | 0.00 | 33 | 1016.3 |
| 20260509234559 | 60 | 355 | 12.0 | 19.0 | 0.00 | 0.00 | 0.00 | 34 | 1016.4 |
| 20260509233058 | 61 | 30 | 14.0 | 20.0 | 0.00 | 0.00 | 0.00 | 33 | 1016.4 |
| 20260509231601 | 61 | 333 | 16.0 | 25.0 | 0.00 | 0.00 | 0.00 | 32 | 1016.2 |
| 20260509230058 | 62 | 319 | 15.0 | 21.0 | 0.00 | 0.00 | 0.00 | 31 | 1016.3 |
| 20260509224600 | 63 | 299 | 17.0 | 26.0 | 0.00 | 0.00 | 0.00 | 31 | 1016.2 |
| 20260509223103 | 62 | 333 | 17.0 | 25.0 | 0.00 | 0.00 | 0.00 | 32 | 1016.2 |
| 20260509221559 | 60 | 13 | 19.0 | 24.0 | 0.00 | 0.00 | 0.00 | 35 | 1016.3 |
| 20260509214631 | 61 | 334 | 8.0 | 19.0 | 0.00 | 0.00 | 0.00 | 38 | 1016.5 |
| 20260509213100 | 61 | 331 | 12.0 | 21.0 | 0.00 | 0.00 | 0.00 | 34 | 1016.6 |
| 20260509211559 | 59 | 317 | 14.0 | 22.0 | 0.00 | 0.00 | 0.00 | 37 | 1016.7 |
| 20260509210109 | 61 | 336 | 10.0 | 28.0 | 0.00 | 0.00 | 0.00 | 36 | 1016.7 |
| 20260509204600 | 62 | 340 | 9.0 | 20.0 | 0.00 | 0.00 | 0.00 | 37 | 1016.7 |
| 20260509203115 | 60 | 343 | 14.0 | 20.0 | 0.00 | 0.00 | 0.00 | 38 | 1016.7 |
| 20260509201600 | 59 | 338 | 11.0 | 17.0 | 0.00 | 0.00 | 0.00 | 39 | 1016.8 |
| 20260509200058 | 60 | 287 | 13.0 | 20.0 | 0.00 | 0.00 | 0.00 | 41 | 1016.9 |
| 20260509194601 | 58 | 323 | 8.0 | 19.0 | 0.00 | 0.00 | 0.00 | 42 | 1017.0 |
| 20260509193106 | 57 | 321 | 12.0 | 20.0 | 0.00 | 0.00 | 0.00 | 44 | 1017.1 |
| 20260509191608 | 56 | 340 | 11.0 | 17.0 | 0.00 | 0.00 | 0.00 | 44 | 1017.1 |
| 20260509190059 | 56 | 329 | 8.0 | 28.0 | 0.00 | 0.00 | 0.00 | 43 | 1017.2 |
| 20260509184601 | 56 | 329 | 11.0 | 20.0 | 0.00 | 0.00 | 0.00 | 43 | 1017.1 |
| 20260509183100 | 56 | 313 | 6.0 | 14.0 | 0.00 | 0.00 | 0.00 | 43 | 1017.1 |
| 20260509181601 | 55 | 321 | 10.0 | 17.0 | 0.00 | 0.00 | 0.00 | 44 | 1017.0 |
| 20260509180100 | 55 | 338 | 9.0 | 18.0 | 0.00 | 0.00 | 0.00 | 43 | 1016.8 |
| 20260509174624 | 55 | 313 | 12.0 | 19.0 | 0.00 | 0.00 | 0.00 | 42 | 1016.8 |
| 20260509173101 | 55 | 328 | 12.0 | 17.0 | 0.00 | 0.00 | 0.00 | 41 | 1016.7 |
| 20260509171600 | 56 | 39 | 7.0 | 20.0 | 0.00 | 0.00 | 0.00 | 40 | 1016.7 |
| 20260509164600 | 53 | 30 | 11.0 | 18.0 | 0.00 | 0.00 | 0.00 | 41 | 1016.6 |
| 20260509163101 | 53 | 71 | 9.0 | 16.0 | 0.00 | 0.00 | 0.00 | 43 | 1016.6 |
| 20260509161602 | 53 | 20 | 11.0 | 15.0 | 0.00 | 0.00 | 0.00 | 43 | 1016.6 |
| 20260509160100 | 52 | 26 | 5.0 | 17.0 | 0.00 | 0.00 | 0.00 | 44 | 1016.6 |
| 20260509154559 | 52 | 344 | 11.0 | 16.0 | 0.00 | 0.00 | 0.00 | 44 | 1016.4 |
| 20260509153117 | 51 | 45 | 8.0 | 15.0 | 0.00 | 0.00 | 0.00 | 45 | 1016.1 |
| 20260509151600 | 50 | 13 | 6.0 | 15.0 | 0.00 | 0.00 | 0.00 | 50 | 1016.1 |
| 20260509150101 | 49 | 15 | 3.0 | 11.0 | 0.00 | 0.00 | 0.00 | 52 | 1016.1 |
| 20260509144600 | 48 | 31 | 3.0 | 10.0 | 0.00 | 0.00 | 0.00 | 55 | 1016.1 |
| 20260509143102 | 47 | 0 | 3.0 | 5.0 | 0.00 | 0.00 | 0.00 | 58 | 1016.1 |
| 20260509141601 | 46 | 0 | 0.0 | 6.0 | 0.00 | 0.00 | 0.00 | 66 | 1016.0 |
| 20260509134600 | 44 | 0 | 0.0 | 0.0 | 0.00 | 0.00 | 0.00 | 71 | 1015.7 |
| 20260509133100 | 43 | 0 | 0.0 | 1.0 | 0.00 | 0.00 | 0.00 | 72 | 1015.6 |
| 20260509131600 | 42 | 0 | 0.0 | 3.0 | 0.00 | 0.00 | 0.00 | 76 | 1015.4 |
| 20260509130108 | 41 | 221 | 2.0 | 4.0 | 0.00 | 0.00 | 0.00 | 79 | 1015.2 |
| 20260509124601 | 40 | 0 | 1.0 | 5.0 | 0.00 | 0.00 | 0.00 | 79 | 1014.8 |
| 20260509123058 | 40 | 29 | 4.0 | 7.0 | 0.00 | 0.00 | 0.00 | 80 | 1014.7 |
| 20260509121633 | 39 | 32 | 6.0 | 8.0 | 0.00 | 0.00 | 0.00 | 80 | 1014.4 |
| 20260509120100 | 39 | 24 | 7.0 | 9.0 | 0.00 | 0.00 | 0.00 | 82 | 1014.1 |
| 20260509114604 | 38 | 25 | 9.0 | 12.0 | 0.00 | 0.00 | 0.00 | 83 | 1013.9 |
| 20260509113101 | 38 | 26 | 9.0 | 11.0 | 0.00 | 0.00 | 0.00 | 83 | 1013.7 |
| 20260509111559 | 37 | 343 | 7.0 | 11.0 | 0.00 | 0.00 | 0.00 | 83 | 1013.5 |
| 20260509110107 | 39 | 19 | 9.0 | 11.0 | 0.00 | 0.00 | 0.00 | 81 | 1013.2 |
| 20260509104559 | 39 | 15 | 8.0 | 9.0 | 0.00 | 0.00 | 0.00 | 81 | 1013.1 |
| 20260509103104 | 40 | 31 | 8.0 | 11.0 | 0.00 | 0.00 | 0.00 | 81 | 1012.9 |
| 20260509101613 | 41 | 47 | 5.0 | 7.0 | 0.00 | 0.00 | 0.00 | 80 | 1012.6 |
| 20260509100057 | 41 | 36 | 3.0 | 6.0 | 0.00 | 0.00 | 0.00 | 79 | 1012.4 |
| 20260509094611 | 41 | 41 | 5.0 | 9.0 | 0.00 | 0.00 | 0.00 | 78 | 1012.1 |
| 20260509093057 | 42 | 12 | 5.0 | 9.0 | 0.00 | 0.00 | 0.00 | 78 | 1012.0 |
| 20260509091606 | 43 | 19 | 4.0 | 6.0 | 0.00 | 0.00 | 0.00 | 77 | 1011.8 |
| 20260509090144 | 42 | 0 | 0.0 | 0.0 | 0.00 | 0.00 | 0.00 | 78 | 1011.6 |
| 20260509084603 | 42 | 0 | 0.0 | 3.0 | 0.00 | 0.00 | 0.00 | 78 | 1011.3 |
| 20260509083108 | 42 | 31 | 4.0 | 8.0 | 0.00 | 0.00 | 0.00 | 79 | 1011.2 |
| 20260509081601 | 43 | 37 | 4.0 | 9.0 | 0.00 | 0.00 | 0.00 | 77 | 1010.9 |
| 20260509074601 | 46 | 44 | 10.0 | 16.0 | 0.00 | 0.00 | 0.00 | 75 | 1010.3 |
| 20260509073111 | 46 | 38 | 11.0 | 14.0 | 0.00 | 0.00 | 0.00 | 74 | 1010.3 |
| 20260509071604 | 46 | 31 | 8.0 | 10.0 | 0.00 | 0.00 | 0.00 | 73 | 1010.2 |
| 20260509070105 | 47 | 71 | 2.0 | 5.0 | 0.00 | 0.00 | 0.00 | 71 | 1009.9 |
| 20260509064605 | 48 | 76 | 4.0 | 10.0 | 0.00 | 0.00 | 0.00 | 70 | 1009.6 |
| 20260509063101 | 49 | 69 | 5.0 | 9.0 | 0.00 | 0.00 | 0.00 | 69 | 1009.5 |
| 20260509061603 | 50 | 91 | 7.0 | 10.0 | 0.00 | 0.00 | 0.00 | 66 | 1009.2 |
| 20260509060111 | 51 | 78 | 7.0 | 11.0 | 0.00 | 0.00 | 0.00 | 67 | 1009.3 |
| 20260509054616 | 52 | 92 | 11.0 | 17.0 | 0.00 | 0.00 | 0.00 | 64 | 1008.8 |
| 20260509053135 | 52 | 105 | 10.0 | 15.0 | 0.00 | 0.00 | 0.00 | 63 | 1008.7 |
| 20260509051601 | 52 | 79 | 11.0 | 17.0 | 0.00 | 0.00 | 0.00 | 63 | 1008.9 |
| 20260509050100 | 52 | 61 | 11.0 | 15.0 | 0.00 | 0.00 | 0.00 | 65 | 1008.8 |
| 20260509044656 | 53 | 71 | 12.0 | 17.0 | 0.00 | 0.00 | 0.00 | 61 | 1008.5 |